Showing default

COSMOS 2322, 23704

Orbit data source: Space-Track

COSMOS 2322, 23704 is a payload satellite owned by GRU (CIS) in LEO that was launched on Tue, 31 Oct 1995 UTC via a ZENIT-2 launch vehicle from the Tyuratam Missile And Space Complex (TTMTR). Payload-class satellites include a variety of spacecraft equipped with specific instruments for various scientific and technological missions. These include communications satellites like Starlink; space stations such as the ISS; scientific satellites like the Hubble; Earth observation satellites from companies like Planet Labs, Umbra, and HawkEye 360; GPS; miniature CubeSats for education and research; and military/defense satellites.

Loading next visibility...
Identifier
23704, 1995-058A
Orbit
LEO
Country
Flag of CISCIS
Related business
Manufacturer
Yuzhnoe
Mission
Defense Sigint
Bus & Motor
TSELINA-2, Unknown motor
Mass
3,250 kg wet, 3,250 kg dry
Launch date (UTC)
1995-10-31 (30 years ago)
Launch vehicle
ZENIT-2
Launch site
Tyuratam Missile And Space Complex (TTMTR)
Object type
Payload
Rocket body
Debris
Shape & HBR
Cyl, 2.3 m
Radar Cross Section
5.718 m², Large (>1 m²)

Expand to show TLE details & history
Last TLE update: 10 hours ago

TLE from 10 hours ago
0 COSMOS 2322
1 23704U 95058A   25260.89745793 -.00000004  00000-0  23102-4 0  9997
2 23704  70.9838 203.9508 0010936 219.2108 140.8223 14.13758347541634
Epoch: 2025-09-17T21:32Z
TLE epoch observation values (Epoch: 2025-09-17T21:32:20.365Z)
Latitude
0.00003°
Longitude
-116.20086°
Altitude
855.066 km
Speed
7.422 km/s
True Right ascension
13h 35m 48s
True Declination
0° 00' 00"
Sunlit
Object was in daylight at epoch
Visualization orbit readout
Latitude
Unknown
Longitude
Unknown
Altitude
Unknown
Speed
Unknown
Apparent Right ascension
Unknown
Apparent Declination
Unknown
Sunlit
N/A
Visualization observer readout
Local Sidereal Time
00:21:23
Azimuth
Unknown
Elevation
Unknown
Doppler factor
Unknown
Orbital elements
Apogee altitude
852.366 km
Perigee altitude
836.568 km
Semi-major axis
7,222.604 km
Eccentricity
0.00109
Inclination
70.9838°
RAAN
203.9508°
Arg. of periapsis
219.2108°
True anomaly
140.90138°
Mean anomaly
140.8223°
Eccentric anomaly
140.86185°
Mean motion
3.53592 °/min
Orbital period
101.81 mins
BSTAR
0.000023102
Loading maneuver chart data...
Computing Atmospheric mass density...
Loading historical data...
Loading historical data...
Loading historical data...
Loading historical data...
Loading historical data...
Loading historical data...
Loading historical data...

Documentation

Showing up to 5 results
|